Hourly Data Report for October 28, 2016

All times are specified in Local Standard Time (LST). Add 1 hour to adjust for Daylight Saving Time where and when it is observed.

IQALUIT CLIMATE
NUNAVUT

63°44'50.000" N
68°32'40.000" W
33.50 m
2402592
71321
XFB

Download Data

Hourly Data (October 2016)
Hourly Data Report for October 28, 2016
Temp Definition
°C
Dew Point Temp Definition
°C
Rel Hum Definition
%
Wind Dir Definition
10's deg

Wind Spd Definition
km/h
Visibility Definition
km
Stn Press Definition
kPa
Hmdx Definition


Wind Chill Definition


Weather Definition


TIME
00:00 -2.4 -5.3 81 13 3   101.08   -4 LegendNANA
01:00 -2.4 -5.1 82 13 8   101.07   -6 LegendNANA
02:00 -1.6 -5.1 77 14 11   101.07   -5 LegendNANA
03:00 -1.7 -5.2 77 19 8   101.06   -5 LegendNANA
04:00 -2.0 -4.9 80 12 11   101.03   -6 LegendNANA
05:00 -1.0 -4.0 80 14 13   101.00   -5 LegendNANA
06:00 -0.3 -4.5 73 18 17   101.00   -5 LegendNANA
07:00 -0.3 -4.3 75 19 17   100.98   -5 LegendNANA
08:00 -0.7 -4.4 76 16 13   100.97   -5 LegendNANA
09:00 -0.5 -4.0 77 16 13   100.91   -5 LegendNANA
10:00
11:00 -0.8   LegendMM 14 26   100.79   -7 LegendNANA
12:00
13:00
14:00
15:00 -0.6 -2.3 89 13 31   100.44   -7 LegendNANA
16:00 -0.5 -3.4 81 14 37   100.38   -8 LegendNANA
17:00 -1.3 -2.3 93 13 31   100.30   -8 LegendNANA
18:00 -0.9 -3.4 83 14 40   100.20   -9 LegendNANA
19:00 -1.4 -2.9 90 14 38   100.12   -9 LegendNANA
20:00 -1.8 -2.5 95 13 41   100.03   -10 LegendNANA
21:00 -2.0 -3.1 92 13 43   99.91   -10 LegendNANA
22:00 -2.6 -3.6 93 13 39   99.83   -11 LegendNANA
23:00 -2.4 -3.4 93 13 42   99.73   -11 LegendNANA

Notes on Data Quality.

Legend

  • E = Estimated
  • M = Missing
  • NA = Not Available
  • ‡ = Partner data that is not subject to review by the National Climate Archives
Date modified: